Location: Chimay
(50.0486°N, 4.3171°E)
Time: 06:52:07
(UTC+00:00)

Meteor 1-25 Rocket - Pass Details

Date: 08 August 2020
Orbit: 836 x 892 km, 81.2° (Epoch: 27 September)

Event Time Altitude Azimuth Distance (km) Brightness Sun altitude
Exits shadow 21:17:52 16° 185° (S) 2,073 5.8 -16.3°
Maximum altitude 21:22:25 80° 100° (E) 862 4.1 -16.7°
Drops below altitude 10° 21:28:04 10° 14° (NNE) 2,489 7.2 -17.3°
Sets 21:30:30 0° 14° (NNE) 3,437 8.0 -17.5°
